User: anonymous   Login
Location: Az?znagar
(16.8373°N, 80.5091°E)
Time: 00:53:18
(UTC+00:00)
Language:

Meteor 1-31 Rocket - Orbit

View from above orbital plane
View from above orbital plane
View from above satellite
View from above satellite

Ground track
Ground track

The orbit data is extracted from the following two-line orbital elements,

1 12586U 81065B   22140.53326226  .00004729  00000-0  27798-3 0  9998
2 12586  97.6837 134.7287 0019198 147.0482 213.1949 15.12023481223845
Epoch (UTC): 20 May 2022 12:47:53
Eccentricity: 0.0019198
inclination: 97.6837°
perigee height: 517 km
apogee height: 543 km
right ascension of ascending node: 134.7287°
argument of perigee: 147.0482°
revolutions per day: 15.12023481
mean anomaly at epoch: 213.1949°
orbit number at epoch: 22384

The dashed part of the orbit path shows where the satellite is in the earth's shadow,  

DLR